Tracking 19847 objects as of 15-Sep-2019
HD Live streaming from Space Station
objects crossing your sky now

COSMOS 342

Track COSMOS 342 now!
10-day predictions
COSMOS 342 is classified as:


NORAD ID: 4389
Int'l Code: 1970-036G
Perigee: 1,317.7 km
Apogee: 1,474.4 km
Inclination: 74.0 °
Period: 113.5 minutes
Semi major axis: 7767 km
RCS: 0.743 m2 (medium)
Launch date: April 25, 1970
Source: Commonwealth of Independent States (former USSR) (CIS)
Launch site: PLESETSK MISSILE AND SPACE COMPLEX (PKMTR)
aabbcc
Your satellite tracking list
Your tracking list is empty




NASA's NSSDC Master Catalog

Two Line Element Set (TLE):
1  4389U 70036G   19257.91256281 +.00000001 +00000-0 +87652-4 0  9991
2  4389 074.0297 163.5435 0100867 130.1813 302.1037 12.68282549286303
Source of the keplerian elements: AFSPC